Weather History for Rome Ciampino, Italy

Change the Weather History Date:

Monday, June 3, 2013

  Actual Average Record
Temperature  
Mean Temperature 62 °F -  
Max Temperature 69 °F 82 °F 89 °F (1998)
Min Temperature 55 °F 58 °F 51 °F (2006)
Degree Days  
Heating Degree Days 3    
Growing Degree Days 12 (Base 50)    
Moisture  
Dew Point 56 °F    
Average Humidity 82    
Maximum Humidity 100    
Minimum Humidity 53    
Precipitation  
Precipitation 0.00 in 0.04 in - ()
Sea Level Pressure  
Sea Level Pressure 29.93 in    
Wind  
Wind Speed 3 mph ()    
Max Wind Speed 9 mph    
Max Gust Speed -    
Visibility 5.7 miles    
Events Rain , Thunderstorm    
Averages and records for this station are not official NWS values.
T = Trace of Precipitation, MM = Missing Value Source: Averaged Metar Reports

Daily Weather History Graph

Daily Weather History Graph

Search for Another Location

Airport:

Trip Planner

Search our weather history database for the weather conditions in past years. The results will help you decide how hot, cold, wet, or windy it might be!

Date:

Astronomy

Jun. 03, 2013 Rise Set
Actual Time 5:36 AM CEST 8:39 PM CEST
Civil Twilight 5:02 AM CEST 9:13 PM CEST
Nautical Twilight 4:19 AM CEST 9:56 PM CEST
Astronomical Twilight 3:29 AM CEST 10:47 PM CEST
Moon 2:29 AM CEST (6/3) 3:49 PM CEST (6/3)
Length of Visible Light 16h 10m
Length of Day
15h 03m
Waning Crescent, 24% of the Moon is Illuminated
Jun 3
Waning Crescent
Jun 8
New
Jun 16
First Quarter
Jun 23
Full
Jun 30
Last Quarter

Hourly Weather History & Observations

Time (CEST) Temp. Dew Point Humidity Pressure Visibility Wind Dir Wind Speed Gust Speed Precip Events Conditions
12:15 AM 57.2 °F 55.4 °F 94% 29.95 in 6.2 mi Calm Calm - N/A   Partly Cloudy
12:45 AM 57.2 °F 55.4 °F 94% 29.92 in 6.2 mi SSE 2.3 mph - N/A   Partly Cloudy
1:15 AM 59.0 °F 57.2 °F 94% 29.92 in 6.2 mi SSW 4.6 mph - N/A   Partly Cloudy
1:45 AM 59.0 °F 57.2 °F 94% 29.92 in 6.2 mi South 4.6 mph - N/A   Partly Cloudy
2:15 AM 59.0 °F 57.2 °F 94% 29.92 in 5.0 mi SSE 2.3 mph - N/A   Partly Cloudy
2:45 AM 57.2 °F 55.4 °F 94% 29.92 in 5.0 mi SE 2.3 mph - N/A   Unknown
3:15 AM 57.2 °F 55.4 °F 94% 29.92 in 5.0 mi Calm Calm - N/A   Unknown
3:45 AM 57.2 °F 55.4 °F 94% 29.92 in 5.0 mi ESE 3.5 mph - N/A   Unknown
4:15 AM 57.2 °F 55.4 °F 94% 29.92 in 5.0 mi East 2.3 mph - N/A   Unknown
4:45 AM 55.4 °F 55.4 °F 100% 29.92 in 5.0 mi SE 1.2 mph - N/A   Unknown
5:15 AM 55.4 °F 53.6 °F 94% 29.92 in 5.0 mi SSE 2.3 mph - N/A   Partly Cloudy
5:45 AM 55.4 °F 53.6 °F 94% 29.92 in 5.0 mi SSE 2.3 mph - N/A   Partly Cloudy
6:15 AM 55.4 °F 53.6 °F 94% 29.92 in 6.2 mi East 2.3 mph - N/A   Scattered Clouds
6:45 AM 57.2 °F 55.4 °F 94% 29.92 in 6.2 mi NNW 1.2 mph - N/A   Mostly Cloudy
7:15 AM 57.2 °F 55.4 °F 94% 29.92 in 6.2 mi WNW 2.3 mph - N/A   Partly Cloudy
7:45 AM 57.2 °F 55.4 °F 94% 29.92 in 6.2 mi NNE 1.2 mph - N/A   Partly Cloudy
8:15 AM 59.0 °F 59.0 °F 100% 29.95 in 4.3 mi NE 3.5 mph - N/A   Partly Cloudy
8:45 AM 60.8 °F 59.0 °F 94% 29.95 in 4.3 mi NE 3.5 mph - N/A   Scattered Clouds
9:15 AM 60.8 °F 59.0 °F 94% 29.95 in 4.3 mi ENE 2.3 mph - N/A   Scattered Clouds
9:45 AM 62.6 °F 59.0 °F 88% 29.95 in 4.3 mi ENE 2.3 mph - N/A   Scattered Clouds
10:15 AM 62.6 °F 57.2 °F 82% 29.95 in 4.3 mi North 2.3 mph - N/A   Scattered Clouds
10:45 AM 64.4 °F 59.0 °F 83% 29.95 in 4.3 mi North 2.3 mph - N/A   Scattered Clouds
11:15 AM 64.4 °F 53.6 °F 68% 29.95 in 4.3 mi NW 2.3 mph - N/A   Scattered Clouds
11:45 AM 66.2 °F 53.6 °F 64% 29.95 in 6.2 mi West 2.3 mph - N/A   Scattered Clouds
12:15 PM 68.0 °F 55.4 °F 64% 29.95 in 6.2 mi SW 2.3 mph - N/A   Scattered Clouds
12:45 PM 68.0 °F 55.4 °F 64% 29.92 in 6.2 mi South 2.3 mph - N/A   Scattered Clouds
1:15 PM 69.8 °F 55.4 °F 60% 29.92 in 6.2 mi SW 3.5 mph - N/A   Scattered Clouds
1:45 PM 69.8 °F 55.4 °F 60% 29.92 in 6.2 mi South 4.6 mph - N/A   Scattered Clouds
2:15 PM 69.8 °F 51.8 °F 53% 29.92 in 6.2 mi SW 5.8 mph - N/A   Mostly Cloudy
2:45 PM 69.8 °F 55.4 °F 60% 29.92 in 6.2 mi SW 9.2 mph - N/A   Mostly Cloudy
3:15 PM 68.0 °F 55.4 °F 64% 29.92 in 6.2 mi WSW 9.2 mph - N/A   Scattered Clouds
3:45 PM 68.0 °F 55.4 °F 64% 29.89 in 6.2 mi WSW 5.8 mph - N/A   Scattered Clouds
4:15 PM 69.8 °F 55.4 °F 60% 29.89 in 6.2 mi SW 8.1 mph - N/A   Scattered Clouds
4:45 PM 69.8 °F 55.4 °F 60% 29.89 in 6.2 mi SW 8.1 mph - N/A   Partly Cloudy
5:15 PM 69.8 °F 53.6 °F 56% 29.89 in 6.2 mi WSW 9.2 mph - N/A   Scattered Clouds
5:45 PM 68.0 °F 51.8 °F 56% 29.89 in 6.2 mi WSW 6.9 mph - N/A   Scattered Clouds
6:15 PM 68.0 °F 53.6 °F 60% 29.89 in 6.2 mi WSW 5.8 mph - N/A Thunderstorm Thunderstorm
6:45 PM 66.2 °F 51.8 °F 60% 29.92 in 6.2 mi North 3.5 mph - N/A Thunderstorm Thunderstorm
7:15 PM 62.6 °F 51.8 °F 68% 29.92 in 6.2 mi NNE 6.9 mph - N/A Rain , Thunderstorm Light Thunderstorms and Rain
7:45 PM 60.8 °F 55.4 °F 82% 29.95 in 6.2 mi NNE 5.8 mph - N/A Rain Light Rain
8:15 PM 59.0 °F 57.2 °F 94% 29.95 in 6.2 mi NE 6.9 mph - N/A Rain Light Rain
8:45 PM 59.0 °F 57.2 °F 94% 29.92 in 6.2 mi NE 6.9 mph - N/A Rain Light Rain
9:15 PM 59.0 °F 57.2 °F 94% 29.92 in 6.2 mi ENE 6.9 mph - N/A Rain Light Rain
9:45 PM 59.0 °F 57.2 °F 94% 29.95 in 6.2 mi NNE 4.6 mph - N/A   Partly Cloudy
10:15 PM 59.0 °F 57.2 °F 94% 29.95 in 6.2 mi NNE 2.3 mph - N/A   Partly Cloudy
10:45 PM 57.2 °F 55.4 °F 94% 29.95 in 6.2 mi NE 4.6 mph - N/A   Partly Cloudy
11:15 PM 59.0 °F 55.4 °F 88% 29.95 in 6.2 mi North 3.5 mph - N/A   Scattered Clouds
11:45 PM 57.2 °F 55.4 °F 94% 29.95 in 6.2 mi NNE 3.5 mph - N/A   Scattered Clouds